Weather History for Richmond Hanover County, VA

Change the Weather History Date:

Tuesday, November 12, 2013

  Actual Average Record
Temperature  
Mean Temperature 42 °F -  
Max Temperature 51 °F 58 °F 79 °F (1964)
Min Temperature 32 °F 37 °F 16 °F (1987)
Degree Days  
Heating Degree Days 22    
Moisture  
Dew Point 23 °F    
Average Humidity 46    
Maximum Humidity 71    
Minimum Humidity 35    
Precipitation  
Precipitation 0.00 in - - ()
Sea Level Pressure  
Sea Level Pressure 30.22 in    
Wind  
Wind Speed 8 mph (NW)    
Max Wind Speed 13 mph    
Max Gust Speed 26 mph    
Visibility 10 miles    
Events      
Averages and records for this station are not official NWS values.
T = Trace of Precipitation, MM = Missing Value Source: NWS Daily Summary

Daily Weather History Graph

Daily Weather History Graph

Search for Another Location

Airport:

Trip Planner

Search our weather history database for the weather conditions in past years. The results will help you decide how hot, cold, wet, or windy it might be!

Date:

Astronomy

Nov. 12, 2013 Rise Set
Actual Time 6:46 AM EST 5:00 PM EST
Civil Twilight 6:19 AM EST 5:28 PM EST
Nautical Twilight 5:47 AM EST 5:59 PM EST
Astronomical Twilight 5:16 AM EST 6:30 PM EST
Moon 2:08 PM EST (11/12) 1:39 AM EST (11/12)
Length of Visible Light 11h 09m
Length of Day
10h 13m
Waxing Gibbous, 76% of the Moon is Illuminated
Nov 12
Waxing Gibbous
Nov 17
Full
Nov 25
Last Quarter
Dec 2
New
Dec 9
First Quarter

Hourly Weather History & Observations

Time (EST) Temp. Windchill Dew Point Humidity Pressure Visibility Wind Dir Wind Speed Gust Speed Precip Events Conditions
12:54 AM 51.1 °F - 30.0 °F 44% 30.07 in 10.0 mi SSW 8.1 mph - N/A   Clear
1:54 AM 51.1 °F - 28.9 °F 43% 30.04 in 10.0 mi SSW 10.4 mph - N/A   Clear
2:54 AM 50.0 °F - 30.0 °F 46% 30.02 in 10.0 mi South 6.9 mph - N/A   Scattered Clouds
3:54 AM 50.0 °F - 30.0 °F 46% 30.00 in 10.0 mi SSW 6.9 mph - N/A   Clear
4:54 AM 48.9 °F - 30.0 °F 48% 30.00 in 10.0 mi WSW 4.6 mph - N/A   Overcast
5:54 AM 48.9 °F - 30.0 °F 48% 30.02 in 10.0 mi SSW 6.9 mph - N/A   Overcast
6:54 AM 46.9 °F - 34.0 °F 61% 30.07 in 10.0 mi Calm Calm - N/A   Mostly Cloudy
7:54 AM 46.9 °F - 37.9 °F 71% 30.10 in 8.0 mi Calm Calm - N/A   Overcast
8:54 AM 48.9 °F - 36.0 °F 61% 30.14 in 9.0 mi NNW 10.4 mph 21.9 mph 0.00 in   Overcast
9:54 AM 46.0 °F 40.2 °F 28.9 °F 51% 30.19 in 8.0 mi North 12.7 mph 25.3 mph N/A   Overcast
10:54 AM 44.1 °F 39.0 °F 28.9 °F 55% 30.23 in 10.0 mi NNW 9.2 mph 23.0 mph N/A   Overcast
11:54 AM 41.0 °F 34.3 °F 25.0 °F 53% 30.25 in 10.0 mi North 11.5 mph 25.3 mph N/A   Overcast
12:54 PM 39.0 °F 31.4 °F 19.0 °F 45% 30.26 in 8.0 mi North 12.7 mph 26.5 mph N/A   Overcast
1:54 PM 39.9 °F 35.1 °F 16.0 °F 38% 30.27 in 10.0 mi Variable 6.9 mph 23.0 mph N/A   Overcast
2:54 PM 39.9 °F 34.5 °F 17.1 °F 40% 30.29 in 10.0 mi NNW 8.1 mph - N/A   Overcast
3:54 PM 39.0 °F 32.8 °F 18.0 °F 43% 30.30 in 10.0 mi NNW 9.2 mph - N/A   Overcast
4:54 PM 39.0 °F 32.8 °F 17.1 °F 41% 30.31 in 10.0 mi NNW 9.2 mph - N/A   Overcast
5:54 PM 37.9 °F 33.5 °F 16.0 °F 41% 30.33 in 10.0 mi Variable 5.8 mph - N/A   Clear
6:54 PM 37.9 °F 34.4 °F 14.0 °F 38% 30.36 in 10.0 mi Variable 4.6 mph - N/A   Clear
7:54 PM 37.9 °F 30.5 °F 12.9 °F 36% 30.38 in 10.0 mi NNW 11.5 mph 17.3 mph N/A   Clear
8:54 PM 37.9 °F 32.1 °F 12.0 °F 35% 30.40 in 10.0 mi NNW 8.1 mph - N/A   Clear
9:54 PM 36.0 °F 30.3 °F 12.9 °F 39% 30.41 in 10.0 mi Variable 6.9 mph - N/A   Clear
10:54 PM 34.0 °F 28.8 °F 14.0 °F 44% 30.43 in 10.0 mi NW 5.8 mph - N/A   Clear
11:54 PM 32.0 °F 27.5 °F 14.0 °F 48% 30.44 in 10.0 mi Variable 4.6 mph - N/A   Clear